Location: Newark
(49.8969°N, 3.3422°E)
Time: 20:20:58
(UTC+00:00)

A-11 Canister half - Pass Details

Date: 28 January 2020
Orbit: 1517 x 1683 km, 47.2° (Epoch: 26 February)

Event Time Altitude Azimuth Distance (km) Brightness Sun altitude
Rises 23:13:19 0° 237° (WSW) 4,750 - -56.9°
Reaches altitude 10° 23:16:28 10° 234° (SW) 3,746 - -57.1°
Maximum altitude 23:25:40 61° 158° (SSE) 1,711 - -57.5°
Drops below altitude 10° 23:34:42 10° 81° (E) 3,682 - -57.8°
Sets 23:37:46 0° 78° (ENE) 4,664 - -57.9°
